When you browse on this site, cookies collect data to enhance your experience and personalize the content and advertising you see.
Visit our Privacy Policy to learn more. By continuing to use the site, you agree to this use of cookies and data.

Météo par heure à Innsbruck

Ce jour, 7 Juillet, Mardi

Heure Température Précipitation Vent Pression Humidité
00:00 +3°C° 0.1 mm 2 m/s 597 mmHg 96%
01:00 +3°C° 0.1 mm 2 m/s 597 mmHg 95%
02:00 +2°C° 0 mm 2 m/s 597 mmHg 95%
03:00 +2°C° 0 mm 2 m/s 597 mmHg 96%
04:00 +2°C° 0 mm 1 m/s 596 mmHg 96%
05:00 +3°C° 0 mm 1 m/s 597 mmHg 92%
06:00 +4°C° 0 mm 1 m/s 597 mmHg 88%
07:00 +5°C° 0 mm 1 m/s 598 mmHg 84%
08:00 +7°C° 0 mm 1 m/s 599 mmHg 71%
09:00 +9°C° 0 mm 1 m/s 600 mmHg 58%
10:00 +12°C° 0 mm 1 m/s 600 mmHg 45%
11:00 +13°C° 0 mm 2 m/s 601 mmHg 42%
12:00 +14°C° 0 mm 2 m/s 601 mmHg 38%
13:00 +15°C° 0 mm 2 m/s 601 mmHg 35%
14:00 +16°C° 0 mm 2 m/s 601 mmHg 35%
15:00 +16°C° 0 mm 2 m/s 601 mmHg 36%
16:00 +16°C° 0 mm 2 m/s 601 mmHg 36%
17:00 +14°C° 0 mm 2 m/s 600 mmHg 46%
18:00 +13°C° 0 mm 2 m/s 600 mmHg 55%
19:00 +10°C° 0 mm 2 m/s 599 mmHg 65%
20:00 +9°C° 0 mm 1 m/s 599 mmHg 74%
21:00 +7°C° 0 mm 1 m/s 598 mmHg 83%
22:00 +3°C° 0 mm 0 m/s 597 mmHg 92%
23:00 +3°C° 0 mm 0 m/s 597 mmHg 92%

Demain, 8 Juillet, Mercredi

Heure Température Précipitation Vent Pression Humidité
00:00 +3°C° 0 mm 0 m/s 597 mmHg 93%
01:00 +3°C° 0 mm 0 m/s 597 mmHg 93%
02:00 +3°C° 0 mm 0 m/s 596 mmHg 92%
03:00 +4°C° 0 mm 1 m/s 596 mmHg 91%
04:00 +4°C° 0 mm 1 m/s 596 mmHg 91%
05:00 +5°C° 0 mm 0 m/s 597 mmHg 83%
06:00 +7°C° 0 mm 0 m/s 598 mmHg 75%
07:00 +9°C° 0 mm 0 m/s 599 mmHg 67%
08:00 +13°C° 0 mm 1 m/s 600 mmHg 59%
09:00 +15°C° 0 mm 1 m/s 601 mmHg 51%
10:00 +18°C° 0 mm 1 m/s 602 mmHg 44%
11:00 +19°C° 0 mm 1 m/s 602 mmHg 41%
12:00 +19°C° 0 mm 2 m/s 602 mmHg 39%
13:00 +19°C° 0 mm 2 m/s 603 mmHg 37%
14:00 +19°C° 0 mm 2 m/s 602 mmHg 38%
15:00 +19°C° 0 mm 2 m/s 602 mmHg 39%
16:00 +19°C° 0 mm 3 m/s 602 mmHg 40%
17:00 +17°C° 0 mm 2 m/s 602 mmHg 50%
18:00 +15°C° 0 mm 2 m/s 601 mmHg 60%
19:00 +13°C° 0 mm 2 m/s 600 mmHg 70%
20:00 +11°C° 0 mm 1 m/s 600 mmHg 77%
21:00 +9°C° 0 mm 1 m/s 599 mmHg 85%
22:00 +6°C° 0 mm 0 m/s 599 mmHg 92%
23:00 +7°C° 0 mm 1 m/s 598 mmHg 92%

Après-demain, 9 Juillet, Jeudi

Heure Température Précipitation Vent Pression Humidité
00:00 +6°C° 0 mm 1 m/s 598 mmHg 92%
01:00 +6°C° 0 mm 1 m/s 598 mmHg 91%
02:00 +6°C° 0 mm 1 m/s 598 mmHg 90%
03:00 +6°C° 0 mm 1 m/s 598 mmHg 89%
04:00 +6°C° 0 mm 1 m/s 598 mmHg 88%
05:00 +7°C° 0 mm 0 m/s 599 mmHg 81%
06:00 +9°C° 0 mm 0 m/s 600 mmHg 74%
07:00 +11°C° 0 mm 0 m/s 601 mmHg 67%
08:00 +14°C° 0 mm 1 m/s 602 mmHg 60%
09:00 +16°C° 0 mm 1 m/s 603 mmHg 52%
10:00 +19°C° 0 mm 1 m/s 604 mmHg 45%
11:00 +20°C° 0 mm 1 m/s 604 mmHg 42%
12:00 +21°C° 0 mm 1 m/s 604 mmHg 40%
13:00 +22°C° 0 mm 1 m/s 604 mmHg 37%
14:00 +20°C° 0.1 mm 2 m/s 604 mmHg 40%
15:00 +20°C° 0.1 mm 2 m/s 603 mmHg 42%
16:00 +20°C° 0.1 mm 2 m/s 603 mmHg 45%
17:00 +18°C° 0.2 mm 2 m/s 602 mmHg 56%
18:00 +18°C° 0.2 mm 1 m/s 601 mmHg 67%
19:00 +15°C° 0.2 mm 1 m/s 601 mmHg 77%
20:00 +13°C° 0.1 mm 1 m/s 600 mmHg 82%
21:00 +11°C° 0.1 mm 1 m/s 600 mmHg 87%
22:00 +10°C° 0.1 mm 1 m/s 599 mmHg 91%
23:00 +9°C° 0 mm 1 m/s 599 mmHg 91%

10 Juillet, Vendredi

Heure Température Précipitation Vent Pression Humidité
00:00 +9°C° 0 mm 1 m/s 599 mmHg 90%
01:00 +9°C° 0 mm 1 m/s 598 mmHg 90%
02:00 +9°C° 0 mm 1 m/s 598 mmHg 90%
03:00 +9°C° 0 mm 1 m/s 598 mmHg 90%
04:00 +8°C° 0 mm 1 m/s 597 mmHg 90%
05:00 +10°C° 0 mm 1 m/s 598 mmHg 86%
06:00 +12°C° 0 mm 1 m/s 599 mmHg 82%
07:00 +14°C° 0 mm 1 m/s 599 mmHg 78%
08:00 +16°C° 0.3 mm 1 m/s 600 mmHg 70%
09:00 +19°C° 0.3 mm 1 m/s 600 mmHg 61%
10:00 +21°C° 0.3 mm 1 m/s 601 mmHg 53%
11:00 +21°C° 0.5 mm 1 m/s 601 mmHg 51%
12:00 +21°C° 0.5 mm 1 m/s 601 mmHg 49%
13:00 +21°C° 0.5 mm 2 m/s 601 mmHg 47%
14:00 +19°C° 1.3 mm 2 m/s 600 mmHg 59%
15:00 +17°C° 1.3 mm 2 m/s 600 mmHg 70%
16:00 +15°C° 1.3 mm 2 m/s 599 mmHg 81%
17:00 +14°C° 3.3 mm 2 m/s 599 mmHg 86%
18:00 +13°C° 3.3 mm 2 m/s 598 mmHg 91%
19:00 +12°C° 3.3 mm 1 m/s 598 mmHg 97%
20:00 +10°C° 3.2 mm 2 m/s 598 mmHg 97%
21:00 +9°C° 3.2 mm 2 m/s 598 mmHg 98%
22:00 +9°C° 3.2 mm 2 m/s 599 mmHg 98%
23:00 +8°C° 0.6 mm 2 m/s 598 mmHg 98%

11 Juillet, Samedi

Heure Température Précipitation Vent Pression Humidité
00:00 +7°C° 0.6 mm 2 m/s 598 mmHg 98%
01:00 +7°C° 0.6 mm 2 m/s 598 mmHg 98%
02:00 +6°C° 0.1 mm 2 m/s 598 mmHg 98%
03:00 +6°C° 0.1 mm 2 m/s 598 mmHg 98%
04:00 +5°C° 0.1 mm 2 m/s 597 mmHg 98%
05:00 +5°C° 0.2 mm 2 m/s 597 mmHg 97%
06:00 +5°C° 0.2 mm 2 m/s 598 mmHg 97%
07:00 +5°C° 0.2 mm 2 m/s 598 mmHg 97%
08:00 +6°C° 0 mm 2 m/s 598 mmHg 94%
09:00 +7°C° 0 mm 2 m/s 599 mmHg 92%
10:00 +7°C° 0 mm 2 m/s 599 mmHg 89%
11:00 +8°C° 0 mm 2 m/s 599 mmHg 86%
12:00 +9°C° 0 mm 2 m/s 600 mmHg 82%
13:00 +9°C° 0 mm 2 m/s 600 mmHg 79%
14:00 +9°C° 0 mm 2 m/s 600 mmHg 79%
15:00 +9°C° 0 mm 2 m/s 600 mmHg 78%
16:00 +9°C° 0 mm 2 m/s 600 mmHg 78%
17:00 +9°C° 0 mm 2 m/s 600 mmHg 81%
18:00 +8°C° 0 mm 2 m/s 600 mmHg 84%
19:00 +7°C° 0 mm 2 m/s 600 mmHg 87%
20:00 +7°C° 0 mm 2 m/s 600 mmHg 89%
21:00 +7°C° 0 mm 1 m/s 600 mmHg 91%
22:00 +6°C° 0 mm 1 m/s 600 mmHg 93%
23:00 +5°C° 0 mm 1 m/s 600 mmHg 94%

12 Juillet, Dimanche

Heure Température Précipitation Vent Pression Humidité
00:00 +5°C° 0 mm 1 m/s 599 mmHg 94%
01:00 +4°C° 0 mm 1 m/s 599 mmHg 95%
02:00 +3°C° 0 mm 1 m/s 599 mmHg 95%
03:00 +3°C° 0 mm 1 m/s 598 mmHg 95%
04:00 +2°C° 0 mm 1 m/s 598 mmHg 94%
05:00 +4°C° 0 mm 1 m/s 599 mmHg 88%
06:00 +6°C° 0 mm 1 m/s 600 mmHg 82%
07:00 +8°C° 0 mm 1 m/s 601 mmHg 75%
08:00 +10°C° 0 mm 1 m/s 602 mmHg 67%
09:00 +12°C° 0 mm 1 m/s 603 mmHg 58%
10:00 +14°C° 0 mm 1 m/s 604 mmHg 49%
11:00 +15°C° 0 mm 2 m/s 604 mmHg 46%
12:00 +16°C° 0 mm 2 m/s 604 mmHg 43%
13:00 +17°C° 0 mm 2 m/s 604 mmHg 40%
14:00 +17°C° 0 mm 2 m/s 604 mmHg 42%
15:00 +17°C° 0 mm 2 m/s 604 mmHg 43%
16:00 +17°C° 0 mm 2 m/s 604 mmHg 45%
17:00 +15°C° 0 mm 2 m/s 603 mmHg 53%
18:00 +14°C° 0 mm 2 m/s 603 mmHg 62%
19:00 +13°C° 0 mm 2 m/s 602 mmHg 71%
20:00 +10°C° 0 mm 1 m/s 601 mmHg 78%
21:00 +8°C° 0 mm 1 m/s 601 mmHg 85%
22:00 +5°C° 0 mm 0 m/s 600 mmHg 92%
23:00 +6°C° 0 mm 1 m/s 600 mmHg 92%
Voir plus